User: anonymous   Login
Location: Caltech
(34.1382°N, 118.1253°W)
Time: 10:54:44
(UTC-07:00)
Language:

Cosmos 1484 Rocket - Orbit

View from above orbital plane
View from above orbital plane
View from above satellite
View from above satellite

Ground track
Ground track

The orbit data is extracted from the following two-line orbital elements,

1 14208U 83075B   15215.51006543  .00001152  00000-0  75334-4 0  9991
2 14208 097.3821 242.2706 0039773 329.5846 030.3076 15.09114574744344
Epoch (UTC): 03 August 2015 12:14:29
Eccentricity: 0.0039773
inclination: 97.3821°
perigee height: 511 km
apogee height: 566 km
right ascension of ascending node: 242.2706°
argument of perigee: 329.5846°
revolutions per day: 15.09114574
mean anomaly at epoch: 30.3076°
orbit number at epoch: 74434

The dashed part of the orbit path shows where the satellite is in the earth's shadow,  

DLR